Wind_Speed
12 12 11 11 10 8 7 6 5 6 7 10 11 12 15 18 18 17 17 17 15 10 1 5 2 2 4 5 9 10 11 12 10 13 16 19 22 21 26 26 25 25 26
10 11 12 12 11 10 9 8 7 8 8 10 13 15 16 17 18 16 13 12 10 5 5 6 3 2 1 4 7 8 9 9 14 13 13 16 17 20 21 26 32 34 29
10 10 12 12 13 12 11 10 8 8 10 12 15 15 15 16 15 12 11 9 7 4 6 7 6 7 7 2 3 6 6 9 10 14 17 15 16 17 19 20 26 21 22
11 12 15 16 14 12 12 9 8 10 13 15 15 14 14 13 13 11 6 5 4 4 6 8 9 10 11 12 12 12 9 9 11 13 11 17 12 18 16 17 19 19 19
14 18 17 16 15 13 11 8 9 12 15 14 13 13 13 13 11 6 3 7 5 6 7 8 11 13 16 17 18 12 10 11 11 12 13 14 16 17 14 14 15 16 18
16 19 18 15 13 11 9 9 11 13 12 12 12 13 12 8 6 4 6 7 10 14 15 15 15 16 18 18 17 13 11 12 13 14 15 16 16 16 17 16 17 16 17
17 17 15 14 13 11 9 11 11 10 11 12 15 17 8 4 6 8 13 10 20 20 14 13 14 20 20 21 20 18 15 13 13 15 16 17 18 19 19 18 17 19 19
16 15 14 14 13 11 11 8 8 9 11 14 16 17 6 8 9 11 12 17 19 14 10 14 20 22 22 20 19 18 18 21 21 17 17 18 18 18 18 19 20 21 20
17 16 16 16 14 12 9 7 7 9 14 19 19 15 7 5 17 7 15 16 17 12 17 21 18 22 22 22 21 20 22 24 23 22 19 19 19 20 20 22 22 22 23
19 19 18 16 14 13 10 7 9 14 19 22 18 15 13 13 9 12 11 19 20 20 21 17 21 23 23 23 24 23 22 22 23 24 20 18 18 19 21 22 24 25 25
21 21 19 17 16 14 11 10 14 20 25 18 16 15 14 14 14 18 24 21 25 25 24 23 21 21 25 25 25 23 23 23 26 29 32 28 20 20 22 24 26 28 29
23 22 20 19 19 18 16 17 28 23 17 17 17 13 12 12 14 17 24 30 31 31 26 23 18 20 23 24 19 21 24 28 30 32 32 31 29 26 27 28 30 33 34
25 24 24 24 23 19 15 27 26 15 18 18 14 13 12 12 15 20 25 27 27 26 20 21 17 18 23 17 20 26 30 33 34 34 34 36 37 34 31 32 33 34 33
25 26 28 25 22 14 35 26 21 12 13 13 14 13 12 14 17 20 20 18 20 17 17 16 9 14 20 20 25 33 32 32 32 32 32 33 34 33 30 27 27 29 28
28 29 28 33 26 33 22 16 10 11 12 12 14 13 14 16 18 19 16 15 15 15 19 17 12 17 19 25 28 30 30 30 29 29 29 29 28 26 24 25 25 26 27
30 34 33 28 27 19 14 8 6 11 13 15 15 13 15 17 18 17 17 17 16 17 22 22 22 22 24 26 26 27 28 28 28 27 27 27 27 26 25 26 27 27 27
31 33 27 23 13 10 9 11 9 12 15 18 15 15 16 17 19 18 18 17 18 20 24 26 25 26 27 26 27 27 26 26 26 25 25 25 26 28 29 30 29 28 28
31 23 21 15 13 16 22 9 15 16 18 18 17 16 17 17 20 18 19 19 21 21 23 27 28 29 28 27 27 28 26 24 24 25 26 26 25 22 19 20 22 28 30
26 26 22 19 21 21 8 11 18 19 21 22 17 19 19 20 20 18 20 20 21 22 22 26 29 28 29 28 29 28 26 27 26 25 20 16 14 16 18 20 21 22 23
27 20 20 19 8 11 12 15 18 22 25 21 20 22 20 22 19 19 20 20 19 21 22 24 26 27 28 28 28 29 30 27 27 22 15 14 15 16 18 19 21 23 24
22 25 21 17 19 20 17 23 22 21 22 22 22 23 22 21 20 20 21 20 20 21 21 22 24 26 28 28 27 27 27 29 28 16 20 20 19 17 18 18 19 21 21
26 20 22 18 19 21 17 16 21 24 24 23 23 22 23 22 22 21 22 22 22 21 20 21 23 26 26 26 25 24 25 26 23 24 30 31 25 20 15 19 21 23 23
10 15 18 19 17 13 15 21 25 25 23 22 21 22 23 24 24 22 22 23 22 22 21 21 24 24 26 23 23 24 24 24 26 29 29 32 24 19 19 22 19 20 20
15 19 15 11 13 15 20 20 20 21 21 22 21 23 25 27 29 20 22 22 22 22 21 22 24 24 22 21 20 21 25 27 28 28 25 29 18 21 21 19 11 14 16
15 11 11 13 17 18 18 20 22 21 21 20 20 24 26 28 25 22 22 21 21 22 21 22 23 21 19 18 18 21 24 25 30 31 22 14 24 28 24 18 11 20 19
12 13 15 18 20 22 21 22 22 22 23 23 23 24 27 28 25 23 22 21 22 21 20 21 20 18 17 16 17 18 21 23 24 27 16 24 25 23 26 25 25 25 26
Wind_Direction
182 189 195 202 207 221 234 236 247 284 297 309 312 318 321 320 320 321 319 320 316 318 198 253 284 353 360 5 7 36 24 31 20 5 351 349 346 338 331 328 327 328 327
201 210 219 215 221 224 229 236 256 280 299 311 312 313 316 318 315 317 318 321 321 312 203 221 223 210 55 351 12 14 4 356 350 355 350 348 350 346 344 338 334 329 323
211 224 224 226 224 223 230 251 273 291 308 310 310 315 319 317 318 322 330 350 356 296 268 254 236 224 257 273 286 292 331 334 320 315 325 324 329 334 339 334 333 338 332
223 236 235 228 229 240 249 255 281 301 304 308 312 316 317 321 319 325 351 5 357 300 283 272 278 287 293 294 295 303 315 315 315 322 310 312 313 317 323 323 330 331 338
235 239 234 234 246 243 242 263 287 300 304 307 310 318 325 321 318 321 341 343 334 317 301 288 290 296 299 302 303 305 306 308 307 307 313 307 310 311 314 316 321 325 327
245 240 238 239 232 231 245 272 292 302 307 316 329 330 329 309 295 272 311 319 332 323 306 300 299 312 316 315 306 303 307 306 305 306 303 302 301 303 303 306 310 315 317
249 235 232 226 222 231 257 282 303 317 318 335 347 338 329 315 272 265 315 304 315 328 321 317 312 320 318 316 310 300 301 308 307 307 304 300 296 294 294 298 301 306 306
236 226 223 225 227 240 264 293 313 320 340 351 353 347 330 292 272 283 293 307 324 327 298 302 306 311 314 312 303 296 299 305 303 304 304 303 300 296 294 295 297 300 300
229 223 222 225 236 252 263 282 312 344 350 346 342 334 323 295 314 314 309 311 320 302 297 304 302 306 307 303 297 293 298 304 304 303 303 299 294 289 292 297 295 292 293
222 220 223 233 244 250 252 293 328 333 330 326 324 322 311 301 308 310 300 306 311 308 313 304 296 297 295 291 290 290 294 298 299 303 304 300 290 288 288 289 290 291 291
219 221 228 237 246 244 256 303 329 324 315 322 318 316 304 299 297 302 307 310 308 310 308 300 291 282 282 286 285 289 293 298 301 302 302 300 293 288 285 285 286 287 287
226 227 234 242 243 246 262 292 299 310 321 326 317 315 305 303 309 306 308 308 307 308 305 300 293 277 273 277 289 293 296 298 299 298 296 291 287 287 285 283 283 283 284
229 234 239 241 245 245 289 310 307 303 315 313 317 308 304 307 310 314 311 307 305 309 305 294 304 271 269 285 292 292 296 296 294 292 288 285 284 284 283 281 281 282 283
237 236 233 233 237 276 307 289 301 306 303 309 323 308 300 309 312 311 309 307 306 308 302 304 297 300 303 295 285 299 300 299 297 295 292 289 287 285 286 285 284 282 283
236 237 241 261 268 276 290 299 304 302 297 313 318 302 302 308 313 317 312 309 300 298 301 305 296 303 300 298 300 302 303 302 302 300 298 295 291 290 287 283 280 279 274
244 248 251 247 268 279 278 287 296 296 299 306 307 295 298 307 315 314 315 310 303 298 297 303 305 304 305 307 308 307 308 306 305 301 297 292 290 288 285 281 275 275 273
249 240 243 260 275 274 251 270 273 275 291 298 294 294 296 302 314 310 311 308 301 296 294 301 303 305 307 310 311 311 310 308 306 302 295 295 293 287 284 282 277 275 275
236 230 254 246 243 239 252 270 269 282 290 295 297 291 297 292 309 303 304 303 298 289 285 293 300 303 308 315 316 314 314 312 311 304 300 297 291 289 293 296 290 277 271
224 239 237 242 244 268 244 263 269 280 293 295 290 290 288 290 299 295 295 292 293 286 281 290 298 304 310 317 317 317 316 316 316 317 311 293 289 290 293 298 296 294 287
233 214 223 252 225 227 247 264 270 282 291 285 283 281 276 292 292 288 286 289 290 285 285 290 295 302 310 318 318 319 318 322 321 324 309 298 306 294 290 301 296 295 292
216 221 222 245 257 274 250 248 273 285 274 275 282 279 285 293 288 286 288 291 289 286 287 290 295 303 311 318 319 318 318 321 321 330 317 317 317 298 288 298 299 296 291
226 240 287 275 268 271 284 294 285 281 278 275 276 275 280 281 284 289 290 289 287 285 289 288 296 303 311 313 314 317 320 324 323 326 320 317 322 318 313 309 307 290 285
254 286 282 277 276 289 290 279 282 282 277 271 273 274 277 283 281 283 290 286 283 285 287 288 297 305 306 310 311 319 321 318 311 316 317 314 323 314 321 320 309 301 284
300 294 289 281 283 285 285 284 285 283 279 275 272 272 276 277 278 281 288 284 286 284 284 288 295 302 301 305 309 314 316 313 311 318 326 312 325 317 321 338 332 325 308
308 291 275 275 287 289 284 286 291 294 287 280 273 275 277 281 285 276 281 284 287 281 281 286 294 295 298 302 305 304 313 314 317 321 334 311 319 318 315 324 329 335 329
285 279 284 288 288 288 289 289 291 291 287 288 289 281 277 280 280 272 275 280 286 291 281 283 289 287 293 298 297 301 311 312 316 321 320 315 319 327 322 316 313 325 329
Height
1575 1577 1578 1578 1579 1579 1581 1581 1581 1580 1580 1580 1580 1578 1577 1576 1575 1570 1571 1571 1571 1570 1569 1567 1568 1567 1565 1563 1563 1561 1559 1558 1558 1557 1557 1555 1554 1554 1554 1552 1550 1550 1548
1576 1576 1578 1578 1578 1578 1581 1580 1579 1581 1578 1578 1579 1576 1573 1574 1573 1570 1570 1567 1568 1568 1567 1565 1566 1566 1565 1563 1562 1561 1560 1559 1557 1556 1555 1553 1552 1551 1550 1546 1545 1545 1545
1575 1575 1577 1576 1578 1577 1579 1581 1578 1579 1578 1575 1576 1573 1570 1569 1570 1569 1566 1566 1565 1566 1565 1565 1565 1563 1563 1562 1561 1560 1559 1557 1555 1555 1555 1553 1552 1549 1547 1545 1544 1542 1540
1573 1573 1574 1575 1577 1578 1578 1578 1577 1577 1575 1575 1573 1571 1569 1566 1566 1567 1564 1564 1564 1564 1563 1563 1563 1562 1561 1560 1559 1558 1557 1555 1554 1552 1552 1550 1549 1547 1546 1543 1541 1540 1538
1571 1572 1572 1573 1575 1577 1577 1576 1574 1574 1574 1573 1573 1569 1565 1563 1562 1563 1562 1562 1562 1562 1562 1561 1560 1559 1558 1557 1556 1555 1553 1552 1551 1550 1549 1548 1546 1545 1542 1540 1539 1537 1536
1569 1569 1570 1571 1573 1574 1575 1574 1573 1572 1573 1572 1569 1566 1563 1561 1561 1561 1560 1560 1561 1559 1559 1557 1557 1555 1554 1553 1552 1551 1550 1549 1548 1547 1546 1545 1544 1542 1539 1537 1535 1534 1533
1566 1567 1568 1570 1570 1571 1572 1571 1571 1570 1571 1568 1564 1563 1560 1558 1558 1558 1557 1557 1556 1555 1554 1553 1553 1552 1551 1549 1548 1547 1546 1545 1544 1543 1542 1541 1540 1538 1536 1534 1531 1529 1529
1563 1565 1566 1567 1567 1568 1569 1569 1567 1568 1566 1562 1560 1560 1560 1560 1557 1556 1554 1552 1551 1551 1551 1550 1548 1547 1545 1544 1543 1542 1541 1540 1539 1538 1536 1535 1534 1533 1531 1530 1528 1525 1524
1561 1562 1562 1564 1564 1565 1565 1565 1564 1561 1561 1560 1556 1559 1558 1558 1554 1551 1550 1549 1548 1548 1548 1546 1544 1543 1541 1540 1539 1538 1536 1534 1533 1532 1531 1529 1528 1527 1526 1525 1524 1521 1519
1557 1558 1559 1560 1560 1560 1561 1560 1559 1557 1554 1556 1558 1555 1555 1555 1553 1549 1549 1548 1547 1546 1544 1543 1542 1540 1537 1536 1535 1533 1530 1528 1528 1526 1524 1523 1522 1520 1519 1517 1518 1517 1513
1552 1553 1554 1555 1556 1556 1556 1556 1554 1556 1552 1551 1553 1551 1552 1552 1551 1549 1543 1543 1542 1541 1540 1538 1537 1535 1532 1531 1530 1528 1526 1524 1521 1519 1517 1515 1514 1513 1511 1510 1510 1510 1507
1549 1550 1551 1552 1552 1552 1551 1551 1548 1550 1551 1550 1550 1548 1548 1548 1546 1545 1541 1537 1534 1533 1533 1533 1531 1529 1527 1525 1525 1523 1521 1519 1516 1513 1511 1509 1507 1505 1504 1503 1502 1501 1499
1543 1544 1545 1546 1546 1546 1548 1546 1547 1546 1548 1547 1546 1545 1545 1544 1543 1541 1538 1534 1530 1528 1527 1527 1527 1525 1523 1522 1521 1518 1515 1511 1509 1507 1504 1501 1498 1496 1494 1493 1492 1490 1488
1538 1539 1540 1539 1541 1542 1543 1543 1542 1541 1542 1542 1542 1542 1541 1539 1538 1536 1533 1531 1526 1525 1524 1523 1522 1522 1520 1518 1516 1512 1508 1505 1501 1498 1495 1492 1488 1486 1484 1484 1483 1481 1480
1533 1533 1534 1534 1536 1538 1538 1540 1540 1540 1540 1537 1537 1537 1537 1536 1534 1531 1529 1527 1525 1521 1518 1518 1518 1517 1515 1514 1510 1506 1502 1498 1494 1490 1487 1483 1481 1478 1478 1477 1475 1473 1472
1526 1526 1527 1530 1530 1531 1533 1534 1535 1537 1537 1535 1532 1531 1531 1530 1529 1527 1525 1523 1521 1520 1516 1515 1513 1511 1509 1506 1502 1499 1495 1491 1487 1483 1480 1477 1473 1471 1470 1469 1467 1465 1463
1521 1523 1526 1529 1529 1531 1531 1529 1530 1529 1529 1530 1528 1526 1526 1525 1524 1522 1520 1518 1516 1515 1511 1508 1507 1506 1502 1500 1496 1492 1488 1484 1480 1476 1473 1470 1467 1465 1462 1459 1457 1455 1453
1516 1521 1524 1522 1523 1523 1523 1526 1528 1527 1525 1525 1525 1524 1522 1520 1519 1517 1515 1513 1510 1509 1506 1503 1501 1499 1497 1493 1489 1485 1481 1478 1473 1470 1467 1463 1460 1457 1455 1452 1448 1446 1445
1514 1515 1517 1519 1518 1517 1519 1521 1522 1522 1521 1520 1519 1519 1516 1515 1513 1511 1509 1507 1505 1504 1502 1498 1495 1492 1489 1486 1482 1478 1475 1471 1467 1463 1460 1457 1454 1453 1450 1446 1443 1439 1437
1507 1511 1511 1514 1515 1516 1515 1516 1517 1516 1515 1514 1513 1512 1510 1509 1507 1506 1504 1502 1500 1498 1496 1493 1490 1487 1484 1480 1476 1471 1467 1465 1461 1459 1456 1453 1450 1447 1444 1441 1437 1434 1431
1505 1504 1504 1506 1509 1510 1509 1509 1509 1508 1508 1507 1507 1505 1504 1503 1501 1500 1498 1496 1494 1492 1490 1488 1484 1481 1478 1473 1470 1467 1463 1459 1455 1453 1449 1447 1445 1440 1438 1435 1431 1428 1425
1499 1502 1505 1503 1502 1503 1504 1504 1504 1503 1502 1501 1500 1499 1498 1497 1495 1493 1492 1490 1488 1486 1484 1482 1479 1476 1472 1469 1466 1463 1459 1455 1450 1448 1443 1439 1438 1433 1432 1429 1425 1422 1419
1499 1498 1500 1498 1498 1498 1498 1499 1498 1496 1494 1493 1493 1492 1492 1490 1489 1487 1486 1484 1482 1480 1478 1477 1473 1471 1467 1465 1461 1458 1455 1452 1449 1445 1441 1433 1432 1428 1426 1423 1418 1415 1412
1496 1495 1495 1494 1494 1494 1494 1493 1491 1489 1488 1487 1486 1486 1485 1483 1481 1480 1479 1477 1475 1474 1472 1470 1468 1466 1462 1460 1458 1454 1451 1447 1443 1441 1438 1429 1427 1423 1420 1418 1414 1411 1409
1492 1492 1492 1491 1490 1489 1488 1487 1485 1483 1481 1480 1480 1479 1478 1476 1475 1473 1472 1470 1469 1467 1467 1465 1462 1460 1458 1456 1454 1451 1448 1443 1437 1434 1432 1428 1424 1418 1414 1413 1411 1409 1406
1489 1488 1488 1487 1485 1483 1483 1481 1479 1477 1474 1473 1472 1471 1470 1468 1468 1466 1465 1464 1462 1461 1461 1459 1457 1455 1453 1452 1450 1448 1444 1440 1436 1430 1430 1427 1422 1420 1410 1405 1405 1404 1400